Regional Weather Roundup
Issued by NWS Midland/Odessa, TX

Skip options and go directly to product.
Home | Oldest Version | Previous Version | Current Version | All | Graphics & Text | Save Text | Print | Product List | Glossary On

Skip product version selection by date and time.   
111
ASUS44 KMAF 241710
RWRMAF
MIDLAND AREA WEATHER ROUNDUP
NATIONAL WEATHER SERVICE MIDLAND TX
1200 PM CDT TUE MAY 24 2016

...IN SOUTHWEST TEXAS AND SOUTHEAST NEW MEXICO...

CITY           SKY/WX    TMP DP  RH WIND       PRES   REMARKS
ALPINE         CLOUDY    82  24  11 SW10      30.11S
ANDREWS        FAIR      84  54  34 W12       29.93S
ARTESIA        SUNNY     86  21   9 SW12G23   29.93S
BIG SPRING     PTSUNNY   78  65  64 SE15G21   29.95R
CARLSBAD       PTSUNNY   85  21   9 W17       29.93R
DRYDEN         NOT AVBL
FORT STOCKTON  CLOUDY    89  30  12 W8        29.95S
GUAD PASS      NOT AVBL
HOBBS          SUNNY     86  28  12 SW16G22   29.95R
MARFA          CLOUDY    79  23  12 SW12      30.11R
MIDLAND AIRPK  SUNNY     89  52  28 SW8G16    29.92S
MIDLAND INTL   SUNNY     90  50  25 W12       29.91S
ODESSA         SUNNY     91  48  22 NW8G21    29.92S
PECOS          MOSUNNY   92  16   6 W15       29.91S
PRESIDIO       FAIR      86  43  22 CALM      29.99R
SEMINOLE       SUNNY     84  52  32 SW10G16   29.93S
SNYDER           N/A     76  68  74 S12       29.94R
WINK           SUNNY     90  30  11 MISG      29.90S
$$
...OTHER STATIONS IN TEXAS...

CITY           SKY/WX    TMP DP  RH WIND       PRES   REMARKS
ABILENE        CLOUDY    78  68  71 S16G23    29.94R
AMARILLO       SUNNY     81  62  52 S15G22    29.92S
AUSTIN         PTSUNNY   85  73  67 S10       29.95S
BROWNSVILLE    CLOUDY    87  77  72 SE17G25   29.91R
CORPUS CHRISTI CLOUDY    86  78  77 SE21      29.90F
DALLAS FTW     CLOUDY    76  71  85 S10       29.97S
DEL RIO        CLOUDY    81  73  76 SE13      29.89R
EL PASO        PTSUNNY   80  27  14 W13       30.01S
HOUSTON INT    PTSUNNY   82  74  76 SE14      30.01R
LUBBOCK        MOSUNNY   81  65  58 S14G23    29.92F
SAN ANGELO     PTSUNNY   81  70  69 S18G24    29.91F
SAN ANTONIO    CLOUDY    81  73  76 SE14      29.94S
WACO           CLOUDY    82  70  66 S10       29.97S
WICHITA FALLS  NOT AVBL
$$
...OTHER LOCATIONS IN NEW MEXICO...

CITY           SKY/WX    TMP DP  RH WIND       PRES   REMARKS
ALAMAGORDO     SUNNY     79  25  13 S6        30.02F
ALBUQUERQUE    MOSUNNY   72  24  16 W6        30.02F
CANNON AFB     SUNNY     81  41  23 SW6       29.94F
CLOVIS         SUNNY     81  46  30 W8        29.94F
HOLLOMAN AFB   SUNNY     80  23  12 SW15G21   30.00S
ROSWELL        SUNNY     88  19   8 W12       29.92S
RUIDOSO          N/A     70  16  12 SW17G26   30.14R
SANTA FE       SUNNY     71  21  15 SW9G22    30.05S
TRUTH OR CONSE SUNNY     76  23  14 S10G28    30.00F
TUCUMCARI      SUNNY     85  26  11 NW7       29.90F
$$

USA.gov is the U.S. government's official web portal to all federal, state and local government web resources and services.